Weather History for KRNH - October, 2012

Change the Weather History Date:

Saturday, October 13, 2012

  Actual Average (KMSP) Record (KMSP)
Temperature  
Mean Temperature 44 °F 50 °F  
Max Temperature 48 °F 60 °F 84 °F (1956)
Min Temperature 41 °F 41 °F 22 °F (1917)
Degree Days  
Heating Degree Days 20 15  
Month to date heating degree days 166  
Since 1 July heating degree days 339  
Cooling Degree Days 0 0  
Month to date cooling degree days 3  
Year to date cooling degree days 750  
Moisture  
Dew Point 43 °F    
Average Humidity 94    
Maximum Humidity 100    
Minimum Humidity 57    
Precipitation  
Precipitation 0.20 in 0.08 in 1.52 in (1890)
Month to date precipitation 1.17  
Year to date precipitation 26.42  
Snow  
Snow 0.00 in 0.00 in T in (1937)
Month to date snowfall 0.0  
Since 1 July snowfall T  
Since 1 September snowfall T  
Snow Depth -    
Sea Level Pressure  
Sea Level Pressure 29.82 in    
Wind  
Wind Speed 8 mph (ESE)    
Max Wind Speed 16 mph    
Max Gust Speed 23 mph    
Visibility 5 miles    
Events Rain    
T = Trace of Precipitation, MM = Missing Value Source: NWS Daily Summary

Daily Weather History Graph

Daily Weather History Graph

Search for Another Location

Airport or City:

Trip Planner

Search our weather history database for the weather conditions in past years. The results will help you decide how hot, cold, wet, or windy it might be!

Date:

Astronomy

Oct. 13, 2012 Rise Set
Actual Time 7:24 AM CDT 6:27 PM CDT
Civil Twilight 6:54 AM CDT 6:57 PM CDT
Nautical Twilight 6:20 AM CDT 7:31 PM CDT
Astronomical Twilight 5:46 AM CDT 8:05 PM CDT
Moon 5:10 AM CDT (10/13) 5:14 PM CDT (10/13)
Length of Visible Light 12h 02m
Length of Day
11h 03m
Waning Crescent, 5% of the Moon is Illuminated
Oct 13
Waning Crescent
Oct 15
New
Oct 21
First Quarter
Oct 29
Full
Nov 6
Last Quarter

Hourly Weather History & Observations

Time (CDT) Temp. Windchill Dew Point Humidity Pressure Visibility Wind Dir Wind Speed Gust Speed Precip Events Conditions
12:55 AM 44.6 °F 37.8 °F 30.2 °F 57% 30.04 in 10.0 mi South 15.0 mph 23.0 mph N/A   Overcast
1:15 AM 44.6 °F 38.8 °F 30.2 °F 57% 30.02 in 10.0 mi SSE 11.5 mph 20.7 mph N/A   Overcast
1:35 AM 44.6 °F 38.8 °F 30.2 °F 57% 30.01 in 10.0 mi SSE 11.5 mph 18.4 mph N/A   Overcast
1:55 AM 44.6 °F 38.1 °F 30.2 °F 57% 30.00 in 10.0 mi SSE 13.8 mph 19.6 mph N/A   Overcast
2:15 AM 44.6 °F 37.4 °F 32.0 °F 61% 30.00 in 10.0 mi South 16.1 mph 21.9 mph N/A   Overcast
2:35 AM 42.8 °F 36.6 °F 33.8 °F 70% 29.99 in 10.0 mi SSE 11.5 mph - N/A   Drizzle
2:55 AM 41.0 °F 35.2 °F 35.6 °F 81% 29.98 in 10.0 mi SSE 9.2 mph - N/A   Overcast
3:15 AM 41.0 °F 35.8 °F 35.6 °F 81% 29.97 in 10.0 mi SE 8.1 mph - N/A   Overcast
3:35 AM 41.0 °F 36.4 °F 35.6 °F 81% 29.95 in 10.0 mi SE 6.9 mph - N/A   Overcast
3:55 AM 41.0 °F 35.2 °F 35.6 °F 81% 29.93 in 10.0 mi SE 9.2 mph - N/A   Overcast
4:15 AM 41.0 °F 36.4 °F 35.6 °F 81% 29.91 in 10.0 mi SE 6.9 mph - N/A   Overcast
4:35 AM 41.0 °F 35.8 °F 35.6 °F 81% 29.92 in 10.0 mi SSE 8.1 mph - N/A   Overcast
4:55 AM 41.0 °F 35.8 °F 37.4 °F 87% 29.92 in 3.0 mi SSE 8.1 mph - N/A   Overcast
5:15 AM 41.0 °F 35.8 °F 41.0 °F 100% 29.90 in 2.5 mi SSE 8.1 mph - N/A   Light Drizzle
5:35 AM 41.0 °F 35.8 °F 41.0 °F 100% 29.89 in 2.5 mi SSE 8.1 mph - N/A   Overcast
5:55 AM 41.0 °F 36.4 °F 41.0 °F 100% 29.87 in 2.5 mi SSE 6.9 mph - N/A   Overcast
6:15 AM 41.0 °F 38.0 °F 41.0 °F 100% 29.87 in 3.0 mi SSE 4.6 mph - N/A   Overcast
6:35 AM 42.8 °F 38.6 °F 42.8 °F 100% 29.87 in 3.0 mi SSE 6.9 mph - N/A   Overcast
6:55 AM 42.8 °F 39.3 °F 42.8 °F 100% 29.86 in 2.5 mi SSE 5.8 mph - N/A   Overcast
7:15 AM 42.8 °F 39.3 °F 42.8 °F 100% 29.86 in 2.5 mi SSE 5.8 mph - N/A   Overcast
7:35 AM 42.8 °F 38.0 °F 42.8 °F 100% 29.85 in 2.0 mi SSE 8.1 mph - N/A   Overcast
7:55 AM 42.8 °F 38.0 °F 42.8 °F 100% 29.84 in 1.8 mi SSE 8.1 mph - N/A   Overcast
8:15 AM 42.8 °F 38.6 °F 42.8 °F 100% 29.83 in 1.2 mi SSE 6.9 mph - N/A   Overcast
8:55 AM 42.8 °F 38.0 °F 42.8 °F 100% 29.82 in 1.2 mi SSE 8.1 mph - N/A   Overcast
9:35 AM 44.6 °F 41.4 °F 44.6 °F 100% 29.81 in 1.2 mi SSE 5.8 mph - N/A   Overcast
9:55 AM 44.6 °F 40.2 °F 44.6 °F 100% 29.81 in 1.2 mi SSE 8.1 mph - N/A   Overcast
10:15 AM 44.6 °F 40.7 °F 44.6 °F 100% 29.80 in 1.5 mi SSE 6.9 mph - N/A   Overcast
10:35 AM 44.6 °F 40.2 °F 44.6 °F 100% 29.79 in 1.5 mi SE 8.1 mph - N/A   Overcast
10:55 AM 46.4 °F 43.5 °F 46.4 °F 100% 29.77 in 2.5 mi ESE 5.8 mph - N/A   Overcast
11:15 AM 46.4 °F 44.3 °F 46.4 °F 100% 29.78 in 3.0 mi SSE 4.6 mph - N/A   Overcast
11:35 AM 46.4 °F 44.3 °F 46.4 °F 100% 29.77 in 3.0 mi SE 4.6 mph - N/A   Overcast
11:55 AM 46.4 °F - 46.4 °F 100% 29.77 in 1.5 mi Calm Calm - N/A   Overcast
12:15 PM 46.4 °F 43.5 °F 46.4 °F 100% 29.77 in 1.2 mi SE 5.8 mph - N/A   Light Drizzle
12:35 PM 46.4 °F 45.2 °F 46.4 °F 100% 29.76 in 2.0 mi SE 3.5 mph - N/A   Drizzle
1:15 PM 46.4 °F 45.2 °F 46.4 °F 100% 29.74 in 1.2 mi ESE 3.5 mph - 0.01 in   Drizzle
1:35 PM 48.2 °F - 48.2 °F 100% 29.74 in 1.8 mi East 4.6 mph - 0.02 in   Light Drizzle
1:55 PM 46.4 °F 44.3 °F 46.4 °F 100% 29.72 in 1.5 mi East 4.6 mph - 0.02 in Rain Rain
2:15 PM 46.4 °F 44.3 °F 46.4 °F 100% 29.71 in 1.8 mi ESE 4.6 mph - 0.01 in   Drizzle
2:35 PM 46.4 °F 44.3 °F 46.4 °F 100% 29.70 in 3.0 mi East 4.6 mph - 0.02 in Rain Light Rain
3:35 PM 48.2 °F - 48.2 °F 100% 29.70 in 3.0 mi East 3.5 mph - 0.04 in Rain Heavy Rain
3:55 PM 48.2 °F - 48.2 °F 100% 29.70 in 3.0 mi ENE 3.5 mph - 0.09 in Rain Rain
4:15 PM 48.2 °F - 48.2 °F 100% 29.70 in 7.0 mi ENE 3.5 mph - 0.01 in Rain Light Rain
4:35 PM 48.2 °F - 48.2 °F 100% 29.70 in 7.0 mi ENE 3.5 mph - 0.01 in   Overcast
4:55 PM 48.2 °F - 48.2 °F 100% 29.70 in 5.0 mi East 3.5 mph - 0.01 in   Overcast
5:15 PM 48.2 °F - 48.2 °F 100% 29.70 in 2.5 mi East 3.5 mph - N/A   Overcast
5:35 PM 48.2 °F - 48.2 °F 100% 29.71 in 1.8 mi ENE 3.5 mph - 0.04 in Rain Heavy Rain
5:55 PM 48.2 °F - 48.2 °F 100% 29.71 in 5.0 mi ENE 4.6 mph - 0.05 in Rain Light Rain
6:15 PM 48.2 °F - 48.2 °F 100% 29.71 in 7.0 mi NE 5.8 mph - N/A   Overcast
6:35 PM 48.2 °F - 48.2 °F 100% 29.72 in 7.0 mi NE 6.9 mph - N/A   Overcast
7:35 PM 46.4 °F - 46.4 °F 100% 29.74 in 5.0 mi Calm Calm - 0.01 in   Overcast
7:55 PM 46.4 °F 44.3 °F 46.4 °F 100% 29.75 in 10.0 mi ENE 4.6 mph - 0.01 in   Overcast
9:15 PM 46.4 °F 42.9 °F 46.4 °F 100% 29.75 in 5.0 mi NNE 6.9 mph - N/A   Overcast
9:35 PM 46.4 °F 43.5 °F 46.4 °F 100% 29.76 in 4.0 mi NNE 5.8 mph - N/A   Overcast
9:55 PM 46.4 °F 43.5 °F 46.4 °F 100% 29.75 in 5.0 mi NNE 5.8 mph - N/A   Overcast
10:15 PM 46.4 °F 44.3 °F 46.4 °F 100% 29.76 in 7.0 mi NE 4.6 mph - N/A   Overcast
10:55 PM 46.4 °F 45.2 °F 46.4 °F 100% 29.77 in 7.0 mi NE 3.5 mph - N/A   Overcast
11:15 PM 46.4 °F 45.2 °F 46.4 °F 100% 29.76 in 5.0 mi NE 3.5 mph - N/A   Mostly Cloudy
11:35 PM 44.6 °F 43.1 °F 44.6 °F 100% 29.76 in 4.0 mi NE 3.5 mph - N/A   Mostly Cloudy